Stations météo

réclame
Mon MeteoGroup
Grünow, Allemagne (10289): Température de l'air & dewpoint: 16.11.2019 04:00:00 - 22.11.2019 04:00:00 (CET)Grünow, Allemagne (10289): Température de l'air 5cm & Température de l'air -5cm: 16.11.2019 04:00:00 - 22.11.2019 04:00:00 (CET)Grünow, Allemagne (10289): Température de l'air -20cm & Température de l'air -100cm: 16.11.2019 04:00:00 - 22.11.2019 04:00:00 (CET)Grünow, Allemagne (10289): Vitesse du vent & gusts: 16.11.2019 04:00:00 - 22.11.2019 04:00:00 (CET)Grünow, Allemagne (10289): Direction du vent: 16.11.2019 04:00:00 - 22.11.2019 04:00:00 (CET)Grünow, Allemagne (10289): reduced air pressure: 16.11.2019 04:00:00 - 22.11.2019 04:00:00 (CET)Grünow, Allemagne (10289): visibility: 16.11.2019 04:00:00 - 22.11.2019 04:00:00 (CET)Grünow, Allemagne (10289): Ensoleillement: 16.11.2019 04:00:00 - 22.11.2019 04:00:00 (CET)Grünow, Allemagne (10289): Quantités de précipitations: 16.11.2019 04:00:00 - 22.11.2019 04:00:00 (CET)
Date & Time tt [°C] td [°C] tt 5cm [°C] tt -5cm [°C] tt -20cm [°C] tt -100cm [°C] ff [km/h] ff [knt] fx [km/h] fx [knt] dd ppp [hPa] vv [km] sd [min] rr [mm]
22.11.2019 04:00:00 8,8 8,8 8,7 8,2 7,5 8,5 10 6 18 10 ESE 1009,5 2,2 0 0,2
22.11.2019 03:00:00 8,7 8,5 8,6 8,2 7,5 8,5 13 7 23 12 ESE 1009,5 5 0 0,0
22.11.2019 02:00:00 8,8 8,6 8,6 8,2 7,4 8,5 15 8 26 14 ESE 1009,5 5 0 0,0
22.11.2019 01:00:00 9,0 8,8 8,8 8,2 7,4 8,5 14 7 21 11 E 1009,5 2,6 0 0,1
22.11.2019 00:00:00 8,9 8,7 8,7 8,1 7,4 8,5 13 7 24 13 ESE 1009,7 5 0 1,0
21.11.2019 23:00:00 8,6 8,4 8,4 8,0 7,4 8,5 13 7 22 12 E 1010,0 7 0 1,1
21.11.2019 22:00:00 8,4 8,1 8,2 7,9 7,4 8,5 15 8 26 14 ESE 1010,1 14 0 2,0
21.11.2019 21:00:00 8,4 8,1 8,1 7,9 7,4 8,5 16 9 23 13 E 1010,2 8 0 1,0
21.11.2019 20:00:00 8,4 8,1 8,2 8,0 7,4 8,5 18 10 27 14 ESE 1010,4 9 0 1,3
21.11.2019 19:00:00 8,6 8,2 8,3 8,2 7,3 8,5 18 10 30 16 E 1010,6 8 0 1,3
21.11.2019 18:00:00 9,2 8,7 8,9 8,4 7,3 8,5 19 10 26 14 E 1010,8 1,7 0 0,4
21.11.2019 17:00:00 9,6 8,7 9,4 8,4 7,2 8,5 15 8 21 11 E 1011,0 4,8 0 0,0
21.11.2019 16:00:00 9,6 8,7 9,4 8,5 7,1 8,5 8 5 18 10 E 1011,1 4,9 0 0,0
21.11.2019 15:00:00 10,0 8,8 9,8 8,7 7,0 8,5 11 6 20 11 E 1011,4 6 0 0,0
21.11.2019 14:00:00 10,0 8,8 10,0 8,7 6,9 8,5 12 6 21 11 E 1011,6 6 0 0,0
21.11.2019 13:00:00 9,7 8,8 9,6 8,4 6,7 8,5 12 7 21 12 E 1012,3 5 0 0,0
21.11.2019 12:00:00 9,6 8,7 9,5 8,3 6,6 8,5 13 7 19 10 E 1013,1 4,8 0 0,0
21.11.2019 11:00:00 9,0 8,5 9,0 7,8 6,4 8,5 7 4 16 9 E 1013,6 3,9 0 0,0
21.11.2019 10:00:00 8,5 8,4 8,6 7,4 6,3 8,5 9 5 14 8 E 1014,0 2,7 0 0,0
21.11.2019 09:00:00 7,6 7,6 7,6 6,8 6,3 8,5 7 4 10 6 E 1014,3 0,6 0 0,0
21.11.2019 08:00:00 7,2 7,2 7,1 6,6 6,2 8,5 6 3 15 8 ENE 1014,3 1,2 0 0,0
21.11.2019 07:00:00 6,9 6,9 6,8 6,4 6,2 8,5 7 4 15 8 ENE 1014,5 0,4 0 0,0
21.11.2019 06:00:00 6,5 6,5 6,5 6,2 6,2 8,5 6 4 11 6 ENE 1014,7 0,6 0 0,0
21.11.2019 05:00:00 6,2 6,1 6,2 6,1 6,2 8,5 6 3 10 5 ENE 1015,2 1,6 0 0,0
21.11.2019 04:00:00 6,0 5,9 6,0 6,0 6,1 8,5 6 3 10 5 E 1015,6 1,8 0 0,0
21.11.2019 03:00:00 6,0 5,5 5,9 6,0 6,1 8,5 7 4 15 8 E 1016,3 2,1 0 0,0
21.11.2019 02:00:00 6,1 5,2 6,0 5,9 6,1 8,5 11 6 21 11 E 1016,6 3,9 0 0,0
21.11.2019 01:00:00 6,1 5,3 5,9 5,9 6,1 8,5 11 6 21 11 E 1017,1 4,1 0 0,0
21.11.2019 00:00:00 6,2 5,2 6,0 6,0 6,1 8,5 14 8 23 12 ESE 1017,3 3,7 0 0,0
20.11.2019 23:00:00 6,1 5,5 6,0 6,0 6,1 8,5 7 4 12 6 E 1017,4 3,9 0 0,0
20.11.2019 22:00:00 5,7 5,4 5,6 5,9 6,1 8,5 2 1 7 4 ENE 1017,7 2,8 0 0,0
20.11.2019 21:00:00 5,7 5,2 5,7 5,9 6,1 8,5 5 3 7 4 E 1018,0 3,8 0 0,0
20.11.2019 20:00:00 5,7 5,4 5,6 6,0 6,1 8,6 3 2 7 4 E 1017,8 2,9 0 0,0
20.11.2019 19:00:00 5,7 5,2 5,6 6,0 6,1 8,6 5 3 10 6 SSE 1017,9 4,6 0 0,0
20.11.2019 18:00:00 5,8 5,3 5,6 6,0 6,2 8,6 9 5 15 8 SSE 1017,8 4,4 0 0,0
20.11.2019 17:00:00 5,8 5,2 5,7 6,1 6,1 8,6 7 4 14 7 SE 1018,0 3,8 0 0,0
20.11.2019 16:00:00 5,9 5,2 5,8 6,3 6,1 8,6 7 4 10 5 ESE 1017,6 3,9 0 0,0
20.11.2019 15:00:00 6,2 5,4 6,2 6,6 6,0 8,6 6 4 9 5 SSE 1017,8 6 0 0,0
20.11.2019 14:00:00 6,2 5,4 6,4 6,5 6,0 8,6 5 3 9 5 SSE 1017,7 6 0 0,0
20.11.2019 13:00:00 6,2 5,6 6,3 6,5 5,9 8,6 2 1 6 3 SSW 1018,3 6 0 0,0
20.11.2019 12:00:00 6,0 5,5 6,4 6,3 5,8 8,6 3 2 8 4 N 1018,4 7 0 0,0
20.11.2019 11:00:00 5,7 5,3 6,0 5,9 5,7 8,6 5 3 10 6 NNW 1018,6 8 0 0,0
20.11.2019 10:00:00 5,4 5,1 5,5 5,6 5,7 8,6 9 5 13 7 NW 1018,9 8 0 0,0
20.11.2019 09:00:00 5,0 4,7 5,0 5,3 5,6 8,6 7 4 13 7 NNW 1019,0 10 0 0,0
20.11.2019 08:00:00 4,8 4,4 4,7 5,1 5,6 8,6 9 5 13 7 NNW 1019,1 8 0 0,0
20.11.2019 07:00:00 4,8 4,5 4,6 5,0 5,7 8,6 8 5 14 8 N 1019,4 12 0 0,0
20.11.2019 06:00:00 4,6 4,4 4,4 5,0 5,7 8,6 8 4 12 7 NNE 1019,6 5 0 0,2
20.11.2019 05:00:00 4,5 4,3 4,4 5,0 5,7 8,6 9 5 13 7 E 1019,8 4,3 0 1,5
20.11.2019 04:00:00 4,6 4,4 4,5 5,0 5,7 8,6 4 2 8 4 ENE 1019,9 2,1 0 1,6
20.11.2019 03:00:00 4,5 4,5 4,4 5,0 5,7 8,6 4 2 7 4 N 1019,9 2,3 0 1,4
20.11.2019 02:00:00 4,6 4,5 4,4 5,1 5,7 8,6 4 2 6 4 NNW 1019,9 4,0 0 1,3
20.11.2019 01:00:00 4,6 4,4 4,5 5,1 5,8 8,6 6 3 9 5 NW 1019,8 6 0 0,9
20.11.2019 00:00:00 4,5 4,0 4,4 5,1 5,8 8,6 2 1 8 4 W 1020,1 4,9 0 1,0
19.11.2019 23:00:00 4,8 4,1 4,4 5,0 5,8 8,6 7 4 11 6 SSE 1020,2 9 0 0,6
19.11.2019 22:00:00 5,1 3,5 4,5 5,0 5,8 8,6 8 4 11 6 SE 1020,2 18 0 0,1
19.11.2019 21:00:00 5,4 3,1 5,1 5,0 5,9 8,6 9 5 15 8 SE 1020,0 40 0 0,0
19.11.2019 20:00:00 5,7 3,2 4,9 4,8 5,9 8,6 11 6 16 8 SW 1019,3 44 0 0,0
19.11.2019 19:00:00 5,0 3,0 4,2 4,6 6,0 8,6 5 3 14 8 SSW 1018,9 46 0 0,0
19.11.2019 18:00:00 4,5 2,5 2,6 4,6 6,2 8,6 10 6 14 8 SW 1018,6 45 0 0,0
19.11.2019 17:00:00 5,5 2,8 4,0 5,5 6,2 8,6 11 6 19 10 SW 1018,2 48 0 0,0
19.11.2019 16:00:00 6,9 3,1 6,0 6,2 6,2 8,6 14 8 28 15 SW 1017,3 47 0 0,0
19.11.2019 15:00:00 7,5 3,5 7,2 6,8 6,2 8,6 16 9 38 21 SSW 1016,8 56 0 0,0
19.11.2019 14:00:00 7,7 3,5 7,7 7,2 6,0 8,6 24 13 39 21 SW 1016,1 46 29 0,0
19.11.2019 13:00:00 8,0 3,4 8,4 7,1 5,8 8,6 25 14 41 22 SSW 1015,5 68 60 0,0
19.11.2019 12:00:00 7,8 3,2 8,2 6,7 5,6 8,6 33 18 46 25 SSW 1014,9 53 60 0,0
19.11.2019 11:00:00 7,7 3,8 8,2 6,1 5,5 8,6 29 16 52 28 SW 1014,3 68 51 0,0
19.11.2019 10:00:00 7,0 3,5 6,8 5,5 5,4 8,6 35 19 49 26 SSW 1013,5 57 2 0,0
19.11.2019 09:00:00 6,5 2,9 6,3 5,0 5,3 8,6 30 16 47 25 SSW 1012,8 69 0 0,0
19.11.2019 08:00:00 5,6 2,6 4,8 4,4 5,3 8,6 31 17 48 26 SSW 1011,8 18 0 0,0
19.11.2019 07:00:00 5,9 1,5 5,4 4,2 5,3 8,6 29 16 51 28 S 1010,5 67 0 0,0
19.11.2019 06:00:00 5,7 1,4 5,1 3,9 5,3 8,6 29 16 49 26 S 1010,1 57 0 0,0
19.11.2019 05:00:00 4,5 1,5 3,9 3,3 5,4 8,6 31 17 41 22 S 1010,0 53 0 0,0
19.11.2019 04:00:00 3,8 1,5 2,7 3,1 5,6 8,6 26 14 42 23 SSE 1010,1 50 0 0,0
19.11.2019 03:00:00 3,6 1,3 2,7 3,0 5,8 8,6 22 12 31 17 SSE 1010,6 58 0 0,0
19.11.2019 02:00:00 3,5 1,1 2,1 3,2 6,0 8,6 22 12 29 16 S 1010,6 53 0 0,0
19.11.2019 01:00:00 4,2 1,1 2,7 3,8 6,2 8,6 22 12 37 20 S 1010,4 55 0 0,0
19.11.2019 00:00:00 4,8 1,5 3,3 4,2 6,4 8,6 20 11 40 21 S 1010,4 44 0 0,0
18.11.2019 23:00:00 4,6 2,6 3,1 4,7 6,6 8,6 19 10 29 16 S 1009,9 35 0 0,0
18.11.2019 22:00:00 6,0 3,2 4,7 5,7 6,7 8,6 18 10 29 16 S 1009,7 37 0 0,0
18.11.2019 21:00:00 7,3 5,0 6,7 6,8 6,8 8,6 18 10 34 18 SSW 1009,4 31 0 0,0
18.11.2019 20:00:00 7,6 6,0 7,1 7,0 6,8 8,6 24 13 39 21 SSW 1009,1 24 0 0,0
18.11.2019 19:00:00 7,5 6,4 7,1 7,2 6,9 8,7 17 9 29 16 SSW 1008,4 19 0 0,0
18.11.2019 18:00:00 7,6 6,5 7,1 7,5 6,8 8,7 21 12 40 21 SSW 1007,7 19 0 0,1
18.11.2019 17:00:00 8,4 7,5 8,0 8,1 6,8 8,7 24 13 31 17 SW 1006,7 3,5 0 0,0
18.11.2019 16:00:00 10,1 8,3 9,7 8,3 6,7 8,7 12 7 23 12 SE 1005,8 13 0 0,0
18.11.2019 15:00:00 10,3 8,2 10,1 8,5 6,5 8,7 16 9 26 14 ESE 1005,2 17 0 0,0
18.11.2019 14:00:00 10,5 8,2 10,4 8,7 6,3 8,7 19 11 27 14 ESE 1005,1 17 0 0,0
18.11.2019 13:00:00 10,3 8,0 10,3 8,7 6,0 8,7 18 10 24 13 ESE 1005,2 16 4 0,0
18.11.2019 12:00:00 9,6 7,5 9,7 8,2 5,7 8,7 16 8 30 16 ESE 1005,6 15 41 0,0
18.11.2019 11:00:00 8,7 7,1 8,6 7,0 5,6 8,7 19 11 31 17 ESE 1005,9 13 0 0,0
18.11.2019 10:00:00 8,2 6,7 7,6 6,1 5,5 8,7 18 10 29 15 ESE 1006,0 15 3 0,0
18.11.2019 09:00:00 7,4 6,1 6,5 5,4 5,4 8,7 18 10 25 13 ESE 1005,7 13 0 0,0
18.11.2019 08:00:00 7,2 6,1 6,3 5,3 5,4 8,7 13 7 18 10 E 1005,7 12 0 0,0
18.11.2019 07:00:00 6,3 5,7 5,5 4,7 5,4 8,7 12 6 16 8 ESE 1005,7 11 0 0,0
18.11.2019 06:00:00 7,2 6,3 4,7 5,0 5,4 8,8 5 3 29 15 E 1005,5 11 0 0,0
18.11.2019 05:00:00 7,9 6,5 6,8 5,6 5,3 8,8 22 12 31 17 ESE 1005,2 14 0 0,0
18.11.2019 04:00:00 8,1 6,7 6,9 5,6 5,2 8,8 21 11 31 17 ESE 1005,3 14 0 0,0
18.11.2019 03:00:00 8,3 7,0 7,1 5,6 5,1 8,8 22 12 32 17 E 1005,7 13 0 0,0
18.11.2019 02:00:00 7,9 7,0 6,7 5,1 5,0 8,8 19 10 28 15 E 1006,3 11 0 0,0
18.11.2019 01:00:00 7,5 6,9 6,7 4,8 4,9 8,8 17 9 24 13 E 1007,0 6 0 0,0
18.11.2019 00:00:00 7,1 6,7 6,2 4,3 4,9 8,8 17 9 26 14 E 1007,6 5 0 0,0
17.11.2019 23:00:00 5,7 5,7 4,4 3,3 5,0 8,8 10 5 15 8 ENE 1008,1 2,2 0 0,0
17.11.2019 22:00:00 5,0 4,8 3,4 3,4 5,0 8,8 10 5 15 8 NE 1008,6 3,6 0 0,0
17.11.2019 21:00:00 4,4 4,0 2,6 3,5 5,1 8,8 8 4 14 8 NE 1009,4 5 0 0,0
17.11.2019 20:00:00 4,8 4,3 3,6 3,7 5,2 8,8 7 4 19 10 ENE 1009,8 8 0 0,0
17.11.2019 19:00:00 4,7 4,1 3,4 3,9 5,2 8,8 11 6 20 11 NE 1010,4 9 0 0,0
17.11.2019 18:00:00 5,2 4,3 3,8 4,2 5,3 8,9 12 7 26 14 NE 1011,2 10 0 0,0
17.11.2019 17:00:00 5,5 4,4 4,4 4,5 5,3 8,9 14 8 27 15 NE 1011,7 11 0 0,0
17.11.2019 16:00:00 5,5 4,4 4,5 5,1 5,2 8,9 17 9 31 17 NE 1012,3 11 0 0,0
17.11.2019 15:00:00 5,8 4,5 5,5 5,3 5,1 8,9 18 10 27 14 NNE 1012,9 10 0 0,0
17.11.2019 14:00:00 5,2 4,2 5,0 5,0 5,0 8,9 20 11 30 16 NNE 1013,5 8 0 0,0
17.11.2019 13:00:00 5,0 3,6 4,8 4,9 4,8 8,9 16 9 24 13 NE 1014,5 7 0 0,0
17.11.2019 12:00:00 4,6 3,5 4,7 4,7 4,7 8,9 13 7 20 11 NNE 1015,6 8 0 0,0
17.11.2019 11:00:00 4,2 3,6 4,4 4,5 4,5 8,9 8 4 16 9 ENE 1016,4 7 0 0,0
17.11.2019 10:00:00 3,1 2,8 3,5 3,7 4,4 8,9 5 3 8 4 ENE 1016,9 6 0 0,0
17.11.2019 09:00:00 0,7 0,6 1,1 2,3 4,4 8,9 4 2 10 5 NNE 1017,2 0,8 0 0,0
17.11.2019 08:00:00 -0,4 -0,4 -0,4 1,6 4,5 8,9 3 1 6 3 E 1017,3 2,2 0 0,0
17.11.2019 07:00:00 -0,5 -0,7 -1,2 1,6 4,7 8,9 2 1 10 5 ENE 1017,4 0,1 0 0,0
17.11.2019 06:00:00 -0,2 -0,2 -0,7 1,5 4,8 8,9 3 2 16 9 E 1016,6 0,2 0 0,0
17.11.2019 05:00:00 0,5 0,3 -0,9 1,7 5,0 8,9 11 6 17 9 SSE 1016,6 2,7 0 0,0
17.11.2019 04:00:00 1,6 1,2 0,8 1,9 5,2 8,9 12 6 21 12 SE 1016,5 4,6 0 0,0
17.11.2019 03:00:00 1,3 0,9 0,2 2,0 5,4 8,9 15 8 20 11 SSE 1016,4 6 0 0,0
17.11.2019 02:00:00 1,3 1,0 0,3 2,2 5,6 8,9 13 7 20 11 SSE 1015,8 3,7 0 0,0
17.11.2019 01:00:00 2,1 1,9 0,7 2,5 5,8 8,9 8 5 18 10 S 1015,2 3,7 0 0,0
17.11.2019 00:00:00 2,5 2,0 1,0 3,0 6,0 8,9 11 6 19 10 SSW 1014,8 5 0 0,0
16.11.2019 23:00:00 3,3 2,5 1,7 3,5 6,2 8,9 14 8 23 12 SW 1014,3 7 0 0,0
16.11.2019 22:00:00 4,1 3,0 2,8 4,0 6,4 8,9 16 9 26 14 SSW 1013,9 10 0 0,0
16.11.2019 21:00:00 4,3 3,0 3,2 4,3 6,5 8,9 16 9 23 13 SSW 1013,2 12 0 0,0
16.11.2019 20:00:00 4,7 3,2 3,7 4,8 6,7 8,9 18 10 41 22 SSW 1012,8 13 0 0,0
16.11.2019 19:00:00 6,0 3,1 5,4 5,6 6,8 8,9 27 15 43 23 SW 1011,7 19 0 0,0
16.11.2019 18:00:00 5,6 3,1 5,0 5,6 7,0 8,9 24 13 49 26 SW 1010,1 17 0 0,0
16.11.2019 17:00:00 5,8 3,1 5,5 6,2 7,1 8,9 31 17 50 27 SW 1009,4 22 0 0,0
16.11.2019 16:00:00 6,2 3,6 6,0 6,7 7,2 8,9 36 20 51 28 SW 1008,4 19 0 0,0
16.11.2019 15:00:00 6,7 5,4 6,6 7,3 7,2 8,9 30 16 45 24 SW 1007,4 16 0 0,0
16.11.2019 14:00:00 7,1 5,8 7,3 8,0 7,2 8,9 31 17 44 24 SW 1005,5 27 0 0,0
16.11.2019 13:00:00 9,0 7,3 8,9 8,5 7,1 8,9 27 15 39 21 SSW 1004,5 11 0 0,0
16.11.2019 12:00:00 9,9 8,3 9,8 8,7 6,9 8,9 17 9 35 19 SSW 1003,5 11 0 0,0
16.11.2019 11:00:00 10,1 8,4 9,7 8,7 6,7 8,9 20 11 29 16 S 1003,4 12 12 0,0
16.11.2019 10:00:00 9,4 8,2 9,4 7,9 6,6 8,9 15 8 23 13 SE 1003,2 10 8 0,1
16.11.2019 09:00:00 8,3 7,2 7,8 7,1 6,6 8,9 15 8 26 14 SE 1003,4 7 0 0,0
16.11.2019 08:00:00 8,2 7,0 7,7 6,7 6,6 8,9 16 9 24 13 ESE 1003,4 8 0 0,0
16.11.2019 07:00:00 7,5 6,9 7,0 6,6 6,6 8,9 16 8 21 12 ESE 1003,4 6 0 0,0
16.11.2019 06:00:00 7,9 7,2 7,3 6,8 6,6 8,9 14 8 19 11 E 1003,9 6 0 0,0
16.11.2019 05:00:00 8,0 7,3 7,7 6,8 6,5 8,9 11 6 20 11 E 1003,9 5 0 0,0
16.11.2019 04:00:00 8,4 7,5 8,1 7,1 6,5 8,9 15 8 23 12 E 1004,7 6 0 0,0

tt = Température de l'air
td = dewpoint
tt 5cm = Température de l'air 5cm
tt -5cm = Température de l'air -5cm
tt -20cm = Température de l'air -20cm
tt -100cm = Température de l'air -100cm
ff = Vitesse du vent
fx = gusts
dd = Direction du vent
ppp = reduced air pressure
vv = visibility
sd = Ensoleillement
rr = Quantités de précipitations

stations d'obs. à proximité